Time,TemperatureF,DewpointF,PressureIn,WindDirection,WindDirectionDegrees,WindSpeedMPH,WindSpeedGustMPH,Humidity,HourlyPrecipIn,Conditions,Clouds,dailyrainin,SoftwareType,DateUTC
2013-06-15 00:02:00,65.0,58.0,29.87,NNE,22,0.0,1.0,77,0.00,,,0.31,,2013-06-15 04:02:00,
2013-06-15 00:12:00,65.0,58.0,29.87,WNW,289,0.0,1.0,77,0.00,,,0.30,,2013-06-15 04:12:00,
2013-06-15 00:22:00,65.0,58.0,29.88,North,351,0.0,2.0,77,0.00,,,0.30,,2013-06-15 04:22:00,
2013-06-15 00:34:00,65.0,58.0,29.87,SW,220,0.0,2.0,78,0.00,,,0.30,,2013-06-15 04:34:00,
2013-06-15 00:43:00,65.0,58.0,29.88,SW,222,0.0,2.0,78,0.00,,,0.30,,2013-06-15 04:43:00,
2013-06-15 00:54:00,65.0,58.0,29.88,SW,222,0.0,2.0,78,0.00,,,0.30,,2013-06-15 04:54:00,
2013-06-15 01:02:00,65.0,58.0,29.88,SSE,167,0.0,2.0,78,0.00,,,0.30,,2013-06-15 05:02:00,
2013-06-15 01:12:00,65.0,58.0,29.88,NW,308,0.0,1.0,77,0.00,,,0.26,,2013-06-15 05:12:00,
2013-06-15 01:22:00,65.0,58.0,29.88,North,355,1.0,3.0,77,0.00,,,0.24,,2013-06-15 05:22:00,
2013-06-15 01:34:00,65.0,57.0,29.88,NNW,339,0.0,1.0,76,0.00,,,0.20,,2013-06-15 05:34:00,
2013-06-15 01:43:00,65.0,58.0,29.88,SSW,210,0.0,2.0,77,0.00,,,0.17,,2013-06-15 05:43:00,
2013-06-15 01:52:00,65.0,58.0,29.88,SSW,210,0.0,2.0,77,0.00,,,0.17,,2013-06-15 05:52:00,
2013-06-15 02:02:00,65.0,58.0,29.89,NNW,330,0.0,1.0,77,0.00,,,0.10,,2013-06-15 06:02:00,
2013-06-15 02:12:00,65.0,58.0,29.89,NNW,330,0.0,1.0,77,0.00,,,0.10,,2013-06-15 06:12:00,
2013-06-15 02:24:00,65.0,57.0,29.89,NNW,347,0.0,3.0,76,0.00,,,0.07,,2013-06-15 06:24:00,
2013-06-15 02:33:00,65.0,57.0,29.89,NW,304,0.0,2.0,76,0.00,,,0.06,,2013-06-15 06:33:00,
2013-06-15 02:43:00,65.0,57.0,29.89,WSW,254,0.0,3.0,76,0.00,,,0.05,,2013-06-15 06:43:00,
2013-06-15 02:53:00,65.0,57.0,29.89,WSW,254,0.0,3.0,76,0.00,,,0.05,,2013-06-15 06:53:00,
2013-06-15 03:01:00,65.0,57.0,29.89,NW,310,0.0,5.0,76,0.00,,,0.03,,2013-06-15 07:01:00,
2013-06-15 03:11:00,65.0,57.0,29.89,NW,310,0.0,5.0,76,0.00,,,0.03,,2013-06-15 07:11:00,
2013-06-15 03:23:00,65.0,57.0,29.91,NNW,348,0.0,2.0,76,0.00,,,0.02,,2013-06-15 07:23:00,
2013-06-15 03:33:00,64.0,56.0,29.91,WSW,241,0.0,1.0,76,0.00,,,0.02,,2013-06-15 07:33:00,
2013-06-15 03:43:00,64.0,56.0,29.91,WSW,241,0.0,1.0,76,0.00,,,0.02,,2013-06-15 07:43:00,
2013-06-15 03:53:00,64.0,56.0,29.91,WSW,241,0.0,1.0,76,0.00,,,0.02,,2013-06-15 07:53:00,
2013-06-15 04:02:00,64.0,56.0,29.91,WSW,241,0.0,1.0,76,0.00,,,0.02,,2013-06-15 08:02:00,
2013-06-15 04:11:00,64.0,56.0,29.91,WSW,241,0.0,1.0,76,0.00,,,0.02,,2013-06-15 08:11:00,
2013-06-15 09:02:00,69.0,58.0,29.99,SW,218,0.0,3.0,68,0.00,,,0.02,,2013-06-15 13:02:00,
2013-06-15 09:11:00,69.0,58.0,29.99,SW,218,0.0,3.0,68,0.00,,,0.02,,2013-06-15 13:11:00,
2013-06-15 09:22:00,70.0,59.0,29.99,WNW,285,0.0,2.0,67,0.00,,,0.01,,2013-06-15 13:22:00,
2013-06-15 09:32:00,71.0,59.0,29.99,SSW,198,0.0,2.0,66,0.00,,,0.01,,2013-06-15 13:32:00,
2013-06-15 09:43:00,71.0,59.0,30.00,SW,217,0.0,2.0,65,0.00,,,0.01,,2013-06-15 13:43:00,
2013-06-15 09:53:00,72.0,59.0,30.00,SSW,210,0.0,1.0,64,0.00,,,0.01,,2013-06-15 13:53:00,
2013-06-15 10:02:00,72.0,59.0,30.00,WSW,255,0.0,3.0,63,0.00,,,0.01,,2013-06-15 14:02:00,
2013-06-15 10:12:00,73.0,59.0,29.99,West,275,0.0,2.0,61,0.00,,,0.00,,2013-06-15 14:12:00,
2013-06-15 10:23:00,73.0,57.0,29.99,ESE,111,1.0,2.0,58,0.00,,,0.00,,2013-06-15 14:23:00,
2013-06-15 10:34:00,73.0,58.0,29.98,WSW,250,0.0,2.0,59,0.00,,,0.00,,2013-06-15 14:34:00,
2013-06-15 10:43:00,73.0,56.0,29.98,WSW,242,0.0,2.0,55,0.00,,,0.00,,2013-06-15 14:43:00,
2013-06-15 10:53:00,74.0,56.0,29.98,NNW,345,0.0,3.0,53,0.00,,,0.00,,2013-06-15 14:53:00,
2013-06-15 11:02:00,75.0,57.0,29.98,NNW,328,0.0,1.0,53,0.00,,,0.00,,2013-06-15 15:02:00,
2013-06-15 11:12:00,76.0,56.0,29.98,NNW,335,0.0,1.0,50,0.00,,,0.00,,2013-06-15 15:12:00,
2013-06-15 11:22:00,76.0,56.0,29.98,NNW,335,0.0,1.0,50,0.00,,,0.00,,2013-06-15 15:22:00,
2013-06-15 11:33:00,76.0,53.0,29.98,South,175,2.0,5.0,45,0.00,,,0.00,,2013-06-15 15:33:00,
2013-06-15 11:43:00,77.0,53.0,29.98,SSW,202,1.0,3.0,44,0.00,,,0.00,,2013-06-15 15:43:00,
2013-06-15 11:53:00,77.0,52.0,29.97,SSW,204,0.0,2.0,42,0.00,,,0.00,,2013-06-15 15:53:00,
2013-06-15 12:02:00,78.0,52.0,29.98,NNW,327,2.0,3.0,40,0.00,,,0.00,,2013-06-15 16:02:00,
2013-06-15 12:12:00,78.0,52.0,29.98,WSW,241,0.0,2.0,41,0.00,,,0.00,,2013-06-15 16:12:00,
2013-06-15 12:22:00,79.0,52.0,29.98,East,80,1.0,3.0,39,0.00,,,0.00,,2013-06-15 16:22:00,
2013-06-15 12:33:00,79.0,52.0,29.98,East,80,1.0,3.0,39,0.00,,,0.00,,2013-06-15 16:33:00,
2013-06-15 12:43:00,78.0,52.0,29.97,SSW,193,0.0,2.0,41,0.00,,,0.00,,2013-06-15 16:43:00,
2013-06-15 12:53:00,79.0,52.0,29.97,ENE,59,1.0,6.0,39,0.00,,,0.00,,2013-06-15 16:53:00,
2013-06-15 13:02:00,78.0,53.0,29.97,SW,233,2.0,5.0,42,0.00,,,0.00,,2013-06-15 17:02:00,
2013-06-15 13:12:00,79.0,53.0,29.96,NNW,343,1.0,3.0,40,0.00,,,0.00,,2013-06-15 17:12:00,
2013-06-15 13:22:00,79.0,53.0,29.96,ENE,69,0.0,8.0,40,0.00,,,0.00,,2013-06-15 17:22:00,
2013-06-15 13:32:00,80.0,51.0,29.96,SW,234,1.0,3.0,37,0.00,,,0.00,,2013-06-15 17:32:00,
2013-06-15 13:43:00,79.0,52.0,29.96,North,356,1.0,3.0,39,0.00,,,0.00,,2013-06-15 17:43:00,
2013-06-15 13:52:00,79.0,51.0,29.96,WSW,256,2.0,3.0,38,0.00,,,0.00,,2013-06-15 17:52:00,
2013-06-15 14:01:00,80.0,51.0,29.96,West,269,1.0,5.0,37,0.00,,,0.00,,2013-06-15 18:01:00,
2013-06-15 14:12:00,81.0,53.0,29.96,East,79,0.0,5.0,38,0.00,,,0.00,,2013-06-15 18:12:00,
2013-06-15 14:22:00,81.0,52.0,29.95,NNE,22,2.0,5.0,36,0.00,,,0.00,,2013-06-15 18:22:00,
2013-06-15 14:33:00,81.0,51.0,29.95,NE,45,1.0,5.0,35,0.00,,,0.00,,2013-06-15 18:33:00,
2013-06-15 14:43:00,81.0,52.0,29.94,NW,316,1.0,7.0,36,0.00,,,0.00,,2013-06-15 18:43:00,
2013-06-15 14:53:00,81.0,52.0,29.93,North,0,0.0,3.0,37,0.00,,,0.00,,2013-06-15 18:53:00,
2013-06-15 15:02:00,80.0,52.0,29.93,SSW,210,1.0,3.0,38,0.00,,,0.00,,2013-06-15 19:02:00,
2013-06-15 15:12:00,80.0,53.0,29.93,NNE,12,0.0,2.0,39,0.00,,,0.00,,2013-06-15 19:12:00,
2013-06-15 15:33:00,81.0,54.0,29.93,SW,216,1.0,5.0,40,0.00,,,0.00,,2013-06-15 19:33:00,
2013-06-15 15:43:00,82.0,55.0,29.92,SSE,147,1.0,2.0,40,0.00,,,0.00,,2013-06-15 19:43:00,
2013-06-15 15:52:00,82.0,55.0,29.92,WNW,284,1.0,5.0,40,0.00,,,0.00,,2013-06-15 19:52:00,
2013-06-15 16:02:00,82.0,55.0,29.91,SW,236,0.0,3.0,40,0.00,,,0.00,,2013-06-15 20:02:00,
2013-06-15 16:12:00,83.0,57.0,29.91,North,11,0.0,2.0,41,0.00,,,0.00,,2013-06-15 20:12:00,
2013-06-15 16:22:00,83.0,56.0,29.91,South,180,1.0,5.0,40,0.00,,,0.00,,2013-06-15 20:22:00,
2013-06-15 16:33:00,83.0,55.0,29.91,SSW,202,2.0,7.0,39,0.00,,,0.00,,2013-06-15 20:33:00,
2013-06-15 16:43:00,83.0,55.0,29.91,North,8,2.0,7.0,39,0.00,,,0.00,,2013-06-15 20:43:00,
2013-06-15 16:53:00,83.0,55.0,29.91,North,8,2.0,7.0,39,0.00,,,0.00,,2013-06-15 20:53:00,
2013-06-15 17:02:00,83.0,57.0,29.91,NW,313,3.0,5.0,41,0.00,,,0.00,,2013-06-15 21:02:00,
2013-06-15 17:12:00,83.0,56.0,29.91,SSW,196,3.0,8.0,40,0.00,,,0.00,,2013-06-15 21:12:00,
2013-06-15 17:22:00,81.0,56.0,29.91,SW,219,2.0,3.0,42,0.00,,,0.00,,2013-06-15 21:22:00,
2013-06-15 17:34:00,82.0,57.0,29.91,SW,225,0.0,3.0,42,0.00,,,0.00,,2013-06-15 21:34:00,
2013-06-15 17:42:00,82.0,55.0,29.91,South,191,0.0,2.0,39,0.00,,,0.00,,2013-06-15 21:42:00,
2013-06-15 17:52:00,82.0,55.0,29.91,SSW,207,1.0,5.0,39,0.00,,,0.00,,2013-06-15 21:52:00,
2013-06-15 18:01:00,81.0,53.0,29.91,South,175,1.0,2.0,38,0.00,,,0.00,,2013-06-15 22:01:00,
2013-06-15 18:11:00,81.0,52.0,29.91,NNW,338,1.0,3.0,37,0.00,,,0.00,,2013-06-15 22:11:00,
2013-06-15 18:22:00,81.0,53.0,29.91,SSW,209,1.0,2.0,38,0.00,,,0.00,,2013-06-15 22:22:00,
2013-06-15 18:33:00,81.0,52.0,29.91,SSW,207,1.0,5.0,37,0.00,,,0.00,,2013-06-15 22:33:00,
2013-06-15 18:43:00,80.0,52.0,29.92,WSW,251,0.0,5.0,38,0.00,,,0.00,,2013-06-15 22:43:00,
2013-06-15 18:53:00,80.0,52.0,29.92,SSW,209,0.0,5.0,38,0.00,,,0.00,,2013-06-15 22:53:00,
2013-06-15 19:02:00,80.0,51.0,29.92,NW,320,1.0,3.0,37,0.00,,,0.00,,2013-06-15 23:02:00,
2013-06-15 19:12:00,80.0,53.0,29.91,South,175,0.0,2.0,39,0.00,,,0.00,,2013-06-15 23:12:00,
2013-06-15 19:22:00,80.0,53.0,29.91,South,175,0.0,2.0,39,0.00,,,0.00,,2013-06-15 23:22:00,
2013-06-15 19:33:00,79.0,51.0,29.91,West,269,0.0,3.0,38,0.00,,,0.00,,2013-06-15 23:33:00,
2013-06-15 19:43:00,79.0,51.0,29.91,ESE,119,0.0,2.0,38,0.00,,,0.00,,2013-06-15 23:43:00,
2013-06-15 19:53:00,79.0,52.0,29.92,North,5,0.0,1.0,39,0.00,,,0.00,,2013-06-15 23:53:00,
2013-06-15 20:02:00,78.0,52.0,29.92,North,4,0.0,0.0,41,0.00,,,0.00,,2013-06-16 00:02:00,
2013-06-15 20:12:00,78.0,51.0,29.92,South,190,0.0,1.0,39,0.00,,,0.00,,2013-06-16 00:12:00,
2013-06-15 20:22:00,78.0,51.0,29.93,SSW,195,0.0,1.0,39,0.00,,,0.00,,2013-06-16 00:22:00,
2013-06-15 20:34:00,77.0,51.0,29.93,SSW,195,0.0,1.0,41,0.00,,,0.00,,2013-06-16 00:34:00,
2013-06-15 20:43:00,77.0,51.0,29.93,North,2,0.0,0.0,41,0.00,,,0.00,,2013-06-16 00:43:00,
2013-06-15 20:52:00,77.0,52.0,29.93,North,2,0.0,0.0,42,0.00,,,0.00,,2013-06-16 00:52:00,
2013-06-15 21:02:00,76.0,52.0,29.93,North,2,0.0,0.0,43,0.00,,,0.00,,2013-06-16 01:02:00,
2013-06-15 21:12:00,76.0,53.0,29.94,North,2,0.0,1.0,45,0.00,,,0.00,,2013-06-16 01:12:00,
2013-06-15 21:22:00,76.0,52.0,29.94,North,2,0.0,0.0,44,0.00,,,0.00,,2013-06-16 01:22:00,
2013-06-15 21:33:00,75.0,53.0,29.94,North,2,0.0,0.0,46,0.00,,,0.00,,2013-06-16 01:33:00,
2013-06-15 21:42:00,75.0,53.0,29.95,North,2,0.0,0.0,46,0.00,,,0.00,,2013-06-16 01:42:00,
2013-06-15 21:53:00,74.0,53.0,29.95,North,2,0.0,0.0,48,0.00,,,0.00,,2013-06-16 01:53:00,
2013-06-15 22:02:00,74.0,53.0,29.95,North,2,0.0,0.0,48,0.00,,,0.00,,2013-06-16 02:02:00,
2013-06-15 22:12:00,74.0,53.0,29.95,North,2,0.0,0.0,48,0.00,,,0.00,,2013-06-16 02:12:00,
2013-06-15 22:22:00,74.0,53.0,29.96,SSW,198,0.0,0.0,48,0.00,,,0.00,,2013-06-16 02:22:00,
2013-06-15 22:33:00,75.0,53.0,29.96,SSW,199,0.0,0.0,46,0.00,,,0.00,,2013-06-16 02:33:00,
2013-06-15 22:43:00,75.0,53.0,29.96,SSW,199,0.0,1.0,47,0.00,,,0.00,,2013-06-16 02:43:00,
2013-06-15 22:53:00,74.0,54.0,29.96,SSW,198,0.0,0.0,49,0.00,,,0.00,,2013-06-16 02:53:00,
2013-06-15 23:02:00,74.0,54.0,29.96,SSW,198,0.0,0.0,50,0.00,,,0.00,,2013-06-16 03:02:00,
2013-06-15 23:12:00,73.0,54.0,29.96,SSW,198,0.0,0.0,52,0.00,,,0.00,,2013-06-16 03:12:00,
2013-06-15 23:22:00,73.0,55.0,29.96,SSW,198,0.0,0.0,53,0.00,,,0.00,,2013-06-16 03:22:00,
2013-06-15 23:34:00,73.0,55.0,29.97,SSW,198,0.0,0.0,53,0.00,,,0.00,,2013-06-16 03:34:00,
2013-06-15 23:43:00,73.0,55.0,29.97,SSW,198,0.0,0.0,53,0.00,,,0.00,,2013-06-16 03:43:00,
2013-06-15 23:53:00,73.0,56.0,29.97,SSW,199,0.0,0.0,56,0.00,,,0.00,,2013-06-16 03:53:00,